User: anonymous
Location: Waning Moon II Observatory
(30.3730°N, 89.7620°W)
Time: 09:22:59
(UTC-05:00)
Language:

Meteor 1-21 - Orbit

View from above orbital plane
View from above orbital plane
View from above satellite
View from above satellite

Ground track
Ground track

The orbit data is extracted from the following two-line orbital elements,

1 07714U 75023A   14208.96249505 -.00000027  00000-0 -23276-4 0  8603
2 07714 081.2117 139.0649 0030912 346.7577 082.8564 14.07814497336715
Epoch (UTC): 27 July 2014 23:05:59
Eccentricity: 0.0030912
inclination: 81.2117°
perigee height: 844 km
apogee height: 889 km
right ascension of ascending node: 139.0649°
argument of perigee: 346.7577°
revolutions per day: 14.07814497
mean anomaly at epoch: 82.8564°
orbit number at epoch: 33671

The dashed part of the orbit path shows where the satellite is in the earth's shadow,  

DLR